• In Hungary
  • List of Countries
  • For 7 days
  • Water Temperature
  • Satellite Maps
  • Weather Map
  • News
  • Weather Widgets
  • user-avatar
    Login

    Hourly Weather Chyczewo

    Today, 24 September, Monday

    Time Temperature Precipitation Wind Pressure Humidity
    00:00 +8°C° 1.9 mm 5 mps 741 mmHg 91%
    01:00 +8°C° 0 mm 7 mps 740 mmHg 89%
    02:00 +8°C° 1.1 mm 7 mps 741 mmHg 88%
    03:00 +8°C° 1.1 mm 7 mps 743 mmHg 87%
    04:00 +6°C° 1.1 mm 7 mps 744 mmHg 86%
    05:00 +8°C° 0.1 mm 7 mps 745 mmHg 85%
    06:00 +7°C° 0.1 mm 8 mps 746 mmHg 83%
    07:00 +7°C° 0 mm 8 mps 746 mmHg 82%
    08:00 +8°C° 0.1 mm 9 mps 747 mmHg 77%
    09:00 +10°C° 0.1 mm 9 mps 747 mmHg 73%
    10:00 +10°C° 0.1 mm 9 mps 748 mmHg 68%
    11:00 +11°C° 0.2 mm 9 mps 748 mmHg 65%
    12:00 +11°C° 0.2 mm 9 mps 749 mmHg 61%
    13:00 +11°C° 0 mm 9 mps 750 mmHg 59%
    14:00 +11°C° 0.2 mm 8 mps 750 mmHg 60%
    15:00 +10°C° 0.2 mm 8 mps 751 mmHg 62%
    16:00 +10°C° 0.2 mm 7 mps 752 mmHg 64%
    17:00 +9°C° 0.1 mm 6 mps 752 mmHg 66%
    18:00 +8°C° 0.1 mm 6 mps 753 mmHg 68%
    19:00 +7°C° 0.1 mm 5 mps 753 mmHg 70%
    20:00 +7°C° 0 mm 5 mps 754 mmHg 70%
    21:00 +6°C° 0 mm 5 mps 754 mmHg 70%
    22:00 +6°C° 0 mm 5 mps 755 mmHg 70%
    23:00 +6°C° 0 mm 5 mps 755 mmHg 71%

    Tomorrow, 25 September, Tuesday

    Time Temperature Precipitation Wind Pressure Humidity
    00:00 +6°C° 0 mm 5 mps 756 mmHg 71%
    01:00 +5°C° 0 mm 5 mps 756 mmHg 72%
    02:00 +5°C° 0 mm 5 mps 757 mmHg 73%
    03:00 +5°C° 0 mm 5 mps 757 mmHg 74%
    04:00 +5°C° 0 mm 5 mps 757 mmHg 75%
    05:00 +5°C° 0 mm 5 mps 758 mmHg 74%
    06:00 +6°C° 0 mm 5 mps 759 mmHg 73%
    07:00 +5°C° 0 mm 6 mps 759 mmHg 71%
    08:00 +8°C° 0.1 mm 6 mps 760 mmHg 65%
    09:00 +9°C° 0.1 mm 7 mps 760 mmHg 58%
    10:00 +10°C° 0.1 mm 8 mps 761 mmHg 51%
    11:00 +11°C° 0.1 mm 8 mps 761 mmHg 49%
    12:00 +11°C° 0.1 mm 8 mps 762 mmHg 46%
    13:00 +12°C° 0.1 mm 7 mps 762 mmHg 44%
    14:00 +11°C° 0 mm 7 mps 762 mmHg 44%
    15:00 +11°C° 0 mm 6 mps 763 mmHg 45%
    16:00 +11°C° 0 mm 6 mps 763 mmHg 46%
    17:00 +9°C° 0 mm 5 mps 764 mmHg 50%
    18:00 +8°C° 0 mm 4 mps 764 mmHg 55%
    19:00 +7°C° 0 mm 3 mps 764 mmHg 59%
    20:00 +7°C° 0 mm 2 mps 765 mmHg 61%
    21:00 +6°C° 0 mm 2 mps 765 mmHg 62%
    22:00 +7°C° 0 mm 1 mps 766 mmHg 63%
    23:00 +6°C° 0 mm 2 mps 766 mmHg 64%

    Day after tomorrow, 26 September, Wednesday

    Time Temperature Precipitation Wind Pressure Humidity
    00:00 +5°C° 0 mm 2 mps 766 mmHg 64%
    01:00 +5°C° 0 mm 2 mps 766 mmHg 64%
    02:00 +5°C° 0 mm 2 mps 766 mmHg 67%
    03:00 +5°C° 0 mm 2 mps 766 mmHg 70%
    04:00 +4°C° 0 mm 3 mps 766 mmHg 74%
    05:00 +4°C° 0 mm 3 mps 766 mmHg 74%
    06:00 +5°C° 0 mm 3 mps 766 mmHg 75%
    07:00 +5°C° 0 mm 3 mps 766 mmHg 75%
    08:00 +7°C° 0 mm 4 mps 765 mmHg 68%
    09:00 +9°C° 0 mm 5 mps 765 mmHg 62%
    10:00 +11°C° 0 mm 6 mps 765 mmHg 55%
    11:00 +11°C° 0 mm 6 mps 764 mmHg 53%
    12:00 +13°C° 0 mm 6 mps 764 mmHg 51%
    13:00 +14°C° 0 mm 7 mps 763 mmHg 49%
    14:00 +13°C° 0.1 mm 6 mps 763 mmHg 52%
    15:00 +11°C° 0.1 mm 6 mps 762 mmHg 55%
    16:00 +10°C° 0.1 mm 5 mps 761 mmHg 59%
    17:00 +10°C° 0.3 mm 5 mps 761 mmHg 61%
    18:00 +10°C° 0.3 mm 5 mps 761 mmHg 63%
    19:00 +9°C° 0.3 mm 5 mps 760 mmHg 66%
    20:00 +10°C° 0 mm 6 mps 760 mmHg 62%
    21:00 +10°C° 0 mm 6 mps 760 mmHg 58%
    22:00 +11°C° 0 mm 7 mps 759 mmHg 54%
    23:00 +11°C° 0 mm 7 mps 759 mmHg 54%

    27 September, Thursday

    Time Temperature Precipitation Wind Pressure Humidity
    00:00 +10°C° 0 mm 7 mps 758 mmHg 55%
    01:00 +10°C° 0 mm 7 mps 758 mmHg 55%
    02:00 +10°C° 0 mm 7 mps 757 mmHg 57%
    03:00 +10°C° 0 mm 7 mps 757 mmHg 59%
    04:00 +10°C° 0 mm 7 mps 757 mmHg 61%
    05:00 +10°C° 0 mm 7 mps 757 mmHg 64%
    06:00 +10°C° 0 mm 7 mps 757 mmHg 67%
    07:00 +11°C° 0 mm 7 mps 757 mmHg 71%
    08:00 +12°C° 0 mm 7 mps 757 mmHg 70%
    09:00 +15°C° 0 mm 8 mps 757 mmHg 68%
    10:00 +16°C° 0 mm 8 mps 757 mmHg 67%
    11:00 +17°C° 0 mm 7 mps 757 mmHg 66%
    12:00 +18°C° 0 mm 7 mps 757 mmHg 65%
    13:00 +20°C° 0 mm 7 mps 757 mmHg 64%
    14:00 +19°C° 0 mm 6 mps 757 mmHg 65%
    15:00 +19°C° 0 mm 6 mps 757 mmHg 67%
    16:00 +19°C° 0 mm 5 mps 757 mmHg 69%
    17:00 +18°C° 0 mm 4 mps 757 mmHg 72%
    18:00 +17°C° 0 mm 4 mps 757 mmHg 76%
    19:00 +16°C° 0 mm 3 mps 757 mmHg 80%
    20:00 +16°C° 0 mm 3 mps 756 mmHg 83%
    21:00 +14°C° 0 mm 3 mps 756 mmHg 86%
    22:00 +13°C° 0 mm 3 mps 756 mmHg 89%
    23:00 +13°C° 0 mm 4 mps 755 mmHg 89%

    28 September, Friday

    Time Temperature Precipitation Wind Pressure Humidity
    00:00 +13°C° 0 mm 4 mps 755 mmHg 88%
    01:00 +13°C° 0 mm 5 mps 754 mmHg 87%
    02:00 +13°C° 0 mm 5 mps 754 mmHg 86%
    03:00 +14°C° 0 mm 5 mps 754 mmHg 85%
    04:00 +14°C° 0 mm 6 mps 753 mmHg 84%
    05:00 +14°C° 0.1 mm 6 mps 753 mmHg 83%
    06:00 +14°C° 0.1 mm 6 mps 753 mmHg 81%
    07:00 +14°C° 0.1 mm 6 mps 753 mmHg 80%
    08:00 +15°C° 0 mm 6 mps 753 mmHg 76%
    09:00 +16°C° 0 mm 6 mps 754 mmHg 72%
    10:00 +16°C° 0 mm 6 mps 754 mmHg 68%
    11:00 +16°C° 0 mm 6 mps 754 mmHg 65%
    12:00 +16°C° 0 mm 5 mps 754 mmHg 61%
    13:00 +16°C° 0 mm 5 mps 754 mmHg 58%
    14:00 +17°C° 0 mm 4 mps 754 mmHg 55%
    15:00 +17°C° 0 mm 3 mps 754 mmHg 53%
    16:00 +17°C° 0 mm 3 mps 754 mmHg 51%
    17:00 +14°C° 0 mm 3 mps 754 mmHg 55%
    18:00 +13°C° 0 mm 2 mps 754 mmHg 58%
    19:00 +12°C° 0 mm 2 mps 754 mmHg 62%
    20:00 +10°C° 0 mm 2 mps 755 mmHg 64%
    21:00 +10°C° 0 mm 2 mps 755 mmHg 66%
    22:00 +9°C° 0 mm 2 mps 755 mmHg 68%
    23:00 +9°C° 0 mm 2 mps 755 mmHg 68%

    29 September, Saturday

    Time Temperature Precipitation Wind Pressure Humidity
    00:00 +10°C° 0 mm 1 mps 755 mmHg 68%
    01:00 +10°C° 0 mm 1 mps 755 mmHg 68%
    02:00 +10°C° 0 mm 1 mps 755 mmHg 69%
    03:00 +10°C° 0 mm 1 mps 755 mmHg 71%
    04:00 +9°C° 0 mm 1 mps 755 mmHg 73%
    05:00 +9°C° 0 mm 1 mps 756 mmHg 73%
    06:00 +9°C° 0 mm 2 mps 756 mmHg 73%
    07:00 +9°C° 0 mm 2 mps 756 mmHg 72%
    08:00 +10°C° 0 mm 2 mps 757 mmHg 65%
    09:00 +13°C° 0 mm 2 mps 757 mmHg 58%
    10:00 +14°C° 0 mm 2 mps 757 mmHg 51%
    11:00 +14°C° 0 mm 2 mps 757 mmHg 47%
    12:00 +15°C° 0 mm 2 mps 757 mmHg 42%
    13:00 +16°C° 0 mm 2 mps 757 mmHg 38%
    14:00 +15°C° 0 mm 2 mps 757 mmHg 39%
    15:00 +15°C° 0 mm 2 mps 757 mmHg 40%
    16:00 +15°C° 0 mm 1 mps 757 mmHg 41%
    17:00 +14°C° 0 mm 1 mps 757 mmHg 45%
    18:00 +12°C° 0 mm 1 mps 758 mmHg 48%
    19:00 +11°C° 0 mm 1 mps 758 mmHg 52%
    20:00 +10°C° 0 mm 1 mps 758 mmHg 54%
    21:00 +10°C° 0 mm 1 mps 758 mmHg 56%
    22:00 +8°C° 0 mm 2 mps 758 mmHg 58%
    23:00 +8°C° 0 mm 2 mps 758 mmHg 59%
    Show more